Voltar ao catálogo

ONEWEB-0430

AtivoComunicaçõesPO
NORAD 50501·PAYLOAD·🇬🇧 United Kingdom

Lançado Dec 27, 2021 de Baikonur Cosmodrome

Loading…

Próximas Passagens (próximas 24 horas)

TLE

AtualizadoSource: CelesTrak SupGP

Época: Sep 14, 2026, 19:25 UTC

1 50501C 21132AJ  26257.80954120 -.00001324  00000+0 -33613-2 0  2577
2 50501  87.9160 317.6498 0001862  92.0322  20.6112 13.18687458    11

Acompanhe ONEWEB-0430 em tempo real com AllMySat

Download on the App Store